DW1389 Weather Reports


Display with metric or nautical units.
time (UTC)temp
F
wind
direction
speed
MPH
gust
MPH
rain 1hr
in
rain 24hr
in
rain mn
in
humidity
%
barometer
mb
20260502224147 74 40 2.0 7.0 0.00 0.00 0.00 45 1018.8
20260502223401 74 354 2.0 6.0 0.00 0.00 0.00 44 1018.8
20260502222901 74 51 2.0 6.0 0.00 0.00 0.00 44 1018.9
20260502222401 74 353 3.0 6.0 0.00 0.00 0.00 44 1018.9
20260502221901 74 43 3.0 5.0 0.00 0.01 0.00 43 1018.9
20260502221642 74 23 2.0 5.0 0.00 0.01 0.00 45 1019.0
20260502220900 75 68 2.0 5.0 0.00 0.02 0.00 46 1018.9
20260502220400 74 338 2.0 7.0 0.00 0.02 0.00 44 1018.9
20260502215901 74 287 2.0 7.0 0.00 0.03 0.00 46 1019.0
20260502215400 74 355 3.0 6.0 0.00 0.04 0.00 47 1019.0
20260502214931 74 37 2.0 6.0 0.00 0.06 0.00 45 1019.1
20260502214922 74 12 3.0 6.0 0.00 0.05 0.00 48 1019.0
20260502213900 74 286 2.0 8.0 0.00 0.08 0.00 46 1019.2
20260502213402 74 246 2.0 8.0 0.00 0.09 0.00 46 1019.2
20260502213147 73 60 2.0 8.0 0.00 0.09 0.00 48 1019.1
20260502212402 73 5 2.0 6.0 0.00 0.09 0.00 49 1019.4
20260502211901 73 81 3.0 6.0 0.00 0.09 0.00 48 1019.5
20260502211402 73 42 3.0 6.0 0.00 0.09 0.00 47 1019.7
20260502210900 73 14 3.0 7.0 0.00 0.09 0.00 49 1019.7
20260502210401 73 14 3.0 7.0 0.00 0.09 0.00 48 1019.8
20260502210144 73 12 2.0 7.0 0.00 0.09 0.00 48 1020.0
20260502205401 73 10 2.0 8.0 0.00 0.09 0.00 48 1020.1
20260502204900 73 47 3.0 8.0 0.00 0.09 0.00 48 1020.1
20260502204401 73 40 4.0 8.0 0.00 0.09 0.00 49 1020.1
20260502203901 73 20 4.0 8.0 0.00 0.09 0.00 48 1020.2
20260502203401 73 8 3.0 7.0 0.00 0.09 0.00 47 1020.2
20260502202903 73 12 2.0 7.0 0.00 0.09 0.00 48 1020.3
20260502202402 73 354 3.0 7.0 0.00 0.10 0.00 47 1020.3
20260502201901 73 4 3.0 8.0 0.00 0.10 0.00 49 1020.4
20260502201401 73 1 4.0 10.0 0.00 0.10 0.00 47 1020.3
20260502200901 73 94 4.0 10.0 0.00 0.10 0.00 48 1020.4
20260502200402 73 14 3.0 8.0 0.00 0.10 0.00 46 1020.3
20260502195902 73 44 3.0 8.0 0.00 0.10 0.00 49 1020.3
20260502195402 72 16 4.0 9.0 0.00 0.11 0.00 46 1020.3
20260502195140 73 228 3.0 9.0 0.00 0.12 0.00 45 1020.3
20260502194646 73 39 2.0 8.0 0.00 0.13 0.00 50 1020.3
20260502193901 73 18 3.0 9.0 0.00 0.14 0.00 49 1020.4
20260502193402 73 31 3.0 9.0 0.00 0.15 0.00 49 1020.5
20260502192901 73 58 3.0 6.0 0.00 0.15 0.00 48 1020.5
20260502192646 73 62 3.0 8.0 0.00 0.16 0.00 50 1020.4
20260502192142 73 358 3.0 8.0 0.00 0.16 0.00 48 1020.4
20260502191401 72 0 3.0 7.0 0.00 0.16 0.00 50 1020.4
20260502191142 72 31 3.0 6.0 0.00 0.16 0.00 54 1020.4
20260502190401 72 46 2.0 6.0 0.00 0.16 0.00 52 1020.5
20260502185901 72 40 2.0 7.0 0.00 0.16 0.00 50 1020.5
20260502185401 72 222 2.0 7.0 0.00 0.16 0.00 50 1020.6
20260502184901 71 16 2.0 5.0 0.00 0.16 0.00 52 1020.7
20260502184432 72 49 3.0 7.0 0.00 0.17 0.00 51 1020.7
20260502184420 72 38 3.0 7.0 0.00 0.16 0.00 51 1020.7
20260502183432 71 351 2.0 7.0 0.00 0.19 0.00 51 1020.9
20260502183420 72 100 2.0 6.0 0.00 0.17 0.00 52 1020.8
20260502182401 70 72 3.0 7.0 0.00 0.21 0.00 53 1021.0
20260502181901 71 341 3.0 8.0 0.00 0.25 0.00 54 1021.1
20260502181400 71 55 2.0 8.0 0.00 0.29 0.00 55 1021.2
20260502180900 71 10 2.0 6.0 0.00 0.31 0.00 58 1021.3
20260502180401 71 190 2.0 8.0 0.00 0.31 0.00 55 1021.4
20260502170404 69 218 3.0 7.0 0.00 0.33 0.00 59 1022.1
20260502163902 67 222 3.0 6.0 0.00 0.33 0.00 59 1022.1
20260502163401 67 46 3.0 6.0 0.00 0.33 0.00 59 1022.2
20260502163219 67 172 3.0 6.0 0.00 0.33 0.00 60 1022.3
20260502162922 67 59 3.0 5.0 0.00 0.33 0.00 59 1022.2
20260502161900 66 44 3.0 6.0 0.00 0.33 0.00 59 1022.3
20260502161400 66 214 3.0 8.0 0.00 0.33 0.00 60 1022.3
20260502160901 67 244 3.0 10.0 0.00 0.33 0.00 59 1022.3
20260502160401 66 54 3.0 10.0 0.00 0.33 0.00 59 1022.2
20260502151902 64 86 4.0 12.0 0.00 0.37 0.00 65 1022.1
20260502151400 64 49 4.0 14.0 0.00 0.37 0.00 65 1022.1
20260502151148 63 279 4.0 14.0 0.00 0.39 0.00 67 1022.1
20260502150401 63 26 3.0 10.0 0.00 0.39 0.00 66 1022.0
20260502130401 55 74 1.0 2.0 0.00 0.68 0.00 87 1021.0
20260502123401 51 223 1.0 3.0 0.00 0.70 0.00 94 1020.5
20260502122901 50 49 1.0 3.0 0.00 0.70 0.00 96 1020.5
20260502122401 50 276 0.0 2.0 0.00 0.70 0.00 96 1020.5
20260502121901 49 0 0.0 2.0 0.00 0.70 0.00 96 1020.3
20260502121625 49 0 0.0 2.0 0.00 0.72 0.00 96 1020.2
20260502120901 49 254 0.0 1.0 0.00 0.74 0.00 96 1020.2
20260502120401 49 88 0.0 1.0 0.00 0.77 0.00 96 1020.1
20260502115901 49 28 0.0 1.0 0.00 0.81 0.00 96 1020.0
20260502115401 48 0 1.0 2.0 0.00 0.85 0.00 96 1019.9
20260502114901 48 88 1.0 2.0 0.00 0.87 0.00 96 1019.8
20260502114626 48 132 0.0 2.0 0.00 0.88 0.00 96 1019.8
20260502114349 48 0 1.0 2.0 0.00 0.88 0.00 96 1019.8
20260502113402 49 332 1.0 2.0 0.00 0.89 0.00 96 1019.7
20260502112901 49 41 1.0 2.0 0.00 0.89 0.00 95 1019.8
20260502112401 49 0 1.0 2.0 0.00 0.91 0.00 95 1019.5
20260502111900 49 271 1.0 2.0 0.00 0.93 0.00 95 1019.5
20260502111401 49 355 1.0 2.0 0.00 0.93 0.00 95 1019.5
20260502110901 49 252 1.0 2.0 0.00 0.94 0.00 95 1019.3
20260502110401 49 0 1.0 2.0 0.00 0.96 0.00 94 1019.2
20260502105901 49 255 0.0 2.0 0.00 0.98 0.00 94 1019.2
20260502105403 50 267 0.0 2.0 0.00 1.01 0.00 94 1019.0
20260502104903 50 284 1.0 3.0 0.00 1.02 0.00 94 1018.8
20260502104400 50 270 1.0 3.0 0.00 1.05 0.00 94 1018.8
20260502103901 50 253 1.0 3.0 0.00 1.08 0.00 94 1018.7
20260502103401 50 0 1.0 3.0 0.00 1.10 0.00 94 1018.6
20260502102901 50 1 1.0 3.0 0.00 1.13 0.00 94 1018.5
20260502102402 50 281 1.0 3.0 0.00 1.17 0.00 94 1018.4
20260502101901 50 235 1.0 4.0 0.00 1.17 0.00 93 1018.3
20260502101401 50 44 1.0 4.0 0.00 1.18 0.00 93 1018.3
20260502100901 51 55 2.0 4.0 0.00 1.19 0.00 93 1018.2
20260502100401 51 44 2.0 4.0 0.00 1.19 0.00 93 1018.2
20260502091401 51 224 2.0 3.0 0.00 1.29 0.00 94 1017.9
20260502090902 51 228 2.0 3.0 0.00 1.29 0.00 94 1017.8
20260502090402 51 318 2.0 4.0 0.00 1.29 0.00 93 1017.8
20260502090131 51 41 2.0 4.0 0.00 1.29 0.00 93 1017.8
20260502070833 52 188 1.0 3.0 0.00 1.34 0.00 92 1017.7
20260502070333 52 8 1.0 4.0 0.00 1.34 0.00 92 1017.7
20260502065832 52 249 1.0 4.0 0.00 1.35 0.00 91 1017.8
20260502065333 52 312 1.0 4.0 0.00 1.35 0.00 91 1017.7
20260502064833 52 108 1.0 3.0 0.00 1.35 0.00 91 1017.7
20260502064333 53 22 1.0 3.0 0.00 1.35 0.00 90 1017.7
20260502063833 53 26 1.0 3.0 0.00 1.35 0.00 90 1017.7
20260502063330 53 358 1.0 3.0 0.00 1.35 0.00 91 1017.7
20260502062830 53 9 1.0 3.0 0.00 1.35 0.00 91 1017.7
20260502062330 53 72 1.0 2.0 0.00 1.35 0.00 90 1017.7
20260502062104 53 27 1.0 2.0 0.00 1.35 0.00 90 1017.8
20260502061330 53 344 1.0 3.0 0.00 1.35 0.00 90 1017.8
20260502060829 53 187 2.0 4.0 0.00 1.35 0.00 90 1017.9
20260502060320 53 104 2.0 4.0 0.00 1.35 0.00 90 1017.9
20260502055820 53 346 2.0 4.0 0.00 1.35 0.00 91 1017.9
20260502055320 53 275 2.0 3.0 0.00 1.35 0.00 90 1017.8
20260502054820 54 68 2.0 2.0 0.00 1.35 0.00 90 1017.9
20260502054321 54 41 2.0 2.0 0.00 1.35 0.00 89 1017.9
20260502054316 54 46 2.0 2.0 0.00 1.35 0.00 89 1017.8
20260502053321 54 48 2.0 2.0 0.00 1.35 0.00 90 1017.7
20260502053048 54 46 2.0 2.0 0.00 1.35 0.00 90 1017.8
20260502052306 54 47 2.0 3.0 0.00 1.35 0.00 89 1017.8
20260502051805 54 46 2.0 3.0 0.00 1.35 0.00 89 1017.7
20260502051533 54 47 2.0 3.0 0.00 1.36 0.00 89 1017.6
20260502050805 54 46 2.0 2.0 0.00 1.36 0.00 88 1017.6
20260502050304 54 41 2.0 2.0 0.00 1.36 0.00 88 1017.6
20260502045804 54 56 2.0 4.0 0.00 1.36 1.36 88 1017.6
20260502045306 54 53 2.0 4.0 0.00 1.37 1.36 89 1017.6
20260502044805 54 26 2.0 4.0 0.00 1.37 1.36 89 1017.5
20260502044539 55 49 2.0 4.0 0.00 1.38 1.36 89 1017.5
20260502044256 55 224 2.0 3.0 0.00 1.38 1.36 89 1017.5
20260502043536 55 57 2.0 3.0 0.00 1.39 1.36 89 1017.5
20260502042805 55 49 2.0 3.0 0.00 1.39 1.36 89 1017.5
20260502042307 55 213 2.0 2.0 0.00 1.39 1.36 90 1017.6
20260502041805 55 55 2.0 2.0 0.00 1.39 1.36 91 1017.5
20260502041305 55 54 2.0 2.0 0.00 1.39 1.36 91 1017.5
20260502040805 55 24 2.0 2.0 0.00 1.39 1.36 91 1017.5
20260502040303 55 58 2.0 2.0 0.00 1.39 1.36 91 1017.6
20260502035803 55 29 2.0 2.0 0.00 1.39 1.36 91 1017.6
20260502035306 55 47 2.0 3.0 0.00 1.39 1.36 91 1017.7
20260502034802 55 36 2.0 3.0 0.00 1.39 1.36 91 1017.6
20260502034301 55 50 2.0 3.0 0.00 1.40 1.36 91 1017.5
20260502033802 55 222 2.0 3.0 0.00 1.40 1.36 91 1017.5
20260502033301 55 222 2.0 4.0 0.00 1.40 1.36 91 1017.5
20260502032813 55 48 2.0 3.0 0.00 1.40 1.36 91 1017.5
20260502032808 55 45 2.0 4.0 0.00 1.40 1.36 91 1017.5
20260502031802 55 48 2.0 3.0 0.00 1.40 1.36 91 1017.4
20260502031252 55 46 2.0 3.0 0.00 1.40 1.36 91 1017.4
20260502031019 55 221 2.0 3.0 0.00 1.40 1.36 91 1017.4
20260502030250 55 49 2.0 4.0 0.00 1.40 1.36 91 1017.3
20260502025750 55 47 2.0 4.0 0.00 1.40 1.36 90 1017.2
20260502025510 55 47 2.0 3.0 0.00 1.41 1.36 91 1017.1
20260502024737 55 49 3.0 5.0 0.00 1.41 1.36 90 1017.1
20260502024238 55 48 3.0 6.0 0.00 1.41 1.36 90 1017.0
20260502024004 55 46 4.0 6.0 0.00 1.41 1.36 89 1016.9
20260502023230 55 45 4.0 6.0 0.00 1.41 1.36 88 1016.7
20260502023013 55 47 4.0 6.0 0.00 1.41 1.36 87 1016.6
20260502022514 55 47 3.0 6.0 0.00 1.41 1.36 90 1016.6
20260502021729 55 46 3.0 6.0 0.00 1.41 1.36 90 1016.4
20260502021229 55 48 3.0 5.0 0.00 1.41 1.36 91 1016.3
20260502020729 55 46 3.0 6.0 0.00 1.41 1.36 91 1016.3
20260502020513 55 46 3.0 6.0 0.00 1.41 1.36 91 1016.2
20260502020018 55 46 4.0 6.0 0.00 1.41 1.36 91 1016.2
20260502015231 55 49 3.0 5.0 0.00 1.41 1.36 91 1016.1
20260502014729 55 47 4.0 5.0 0.00 1.41 1.36 91 1016.0
20260502014230 55 47 4.0 5.0 0.00 1.41 1.36 91 1015.9
20260502013729 55 50 4.0 5.0 0.00 1.41 1.36 90 1015.9
20260502013302 55 47 4.0 7.0 0.00 1.41 1.36 90 1015.8
20260502013252 55 47 4.0 6.0 0.00 1.41 1.36 90 1015.8
20260502012513 55 48 4.0 7.0 0.00 1.41 1.36 90 1015.7
20260502011730 55 48 5.0 6.0 0.00 1.41 1.36 90 1015.6
20260502011229 55 48 4.0 6.0 0.00 1.41 1.36 90 1015.5
20260502010730 55 47 4.0 6.0 0.00 1.41 1.36 91 1015.4
20260502010229 55 48 5.0 7.0 0.00 1.41 1.36 91 1015.3
20260502005730 55 46 5.0 12.0 0.00 1.41 1.36 91 1015.3
20260502005229 55 48 5.0 12.0 0.00 1.41 1.36 91 1015.0
20260502004730 55 46 5.0 8.0 0.00 1.41 1.36 91 1015.2
20260502004229 55 47 5.0 8.0 0.00 1.41 1.36 91 1014.9
20260502003729 55 47 5.0 8.0 0.00 1.41 1.36 91 1014.7
20260502003549 55 46 5.0 8.0 0.00 1.41 1.36 91 1014.7
20260502002948 55 49 5.0 7.0 0.00 1.41 1.36 92 1014.6
20260502002230 55 49 5.0 7.0 0.00 1.41 1.36 92 1014.4
20260502001730 55 50 5.0 7.0 0.00 1.41 1.36 93 1014.4
20260502001230 54 47 5.0 7.0 0.00 1.41 1.36 93 1014.2
20260502000731 54 46 4.0 7.0 0.00 1.41 1.36 94 1014.3
20260502000230 54 45 4.0 7.0 0.00 1.41 1.36 94 1014.2
20260502000046 54 48 4.0 7.0 0.00 1.41 1.36 94 1014.7
20260502000042 54 46 4.0 7.0 0.00 1.41 1.36 94 1014.6
20260501234730 54 46 4.0 7.0 0.00 1.41 1.36 94 1014.7
20260501234230 54 46 4.0 8.0 0.00 1.41 1.36 95 1014.7
20260501233730 54 47 4.0 8.0 0.00 1.41 1.36 96 1014.4
20260501233233 55 48 4.0 7.0 0.00 1.41 1.36 96 1014.1
20260501232731 55 47 5.0 11.0 0.00 1.41 1.36 96 1013.8
20260501232229 55 48 6.0 11.0 0.01 1.41 1.36 97 1013.9
20260501231730 55 221 6.0 11.0 0.01 1.41 1.36 97 1014.1
20260501231228 55 49 6.0 11.0 0.02 1.41 1.36 97 1014.1
20260501230730 55 40 4.0 10.0 0.02 1.42 1.36 97 1013.9
20260501230231 55 39 5.0 8.0 0.02 1.42 1.36 97 1013.8
20260501225730 55 47 5.0 8.0 0.02 1.41 1.36 97 1013.8
20260501225230 55 44 5.0 8.0 0.04 1.41 1.36 97 1013.7
20260501224802 55 49 3.0 5.0 0.07 1.41 1.36 98 1013.5
20260501224750 55 49 4.0 8.0 0.05 1.41 1.36 98 1013.5